Time,TemperatureF,DewpointF,PressureIn,WindDirection,WindDirectionDegrees,WindSpeedMPH,WindSpeedGustMPH,Humidity,HourlyPrecipIn,Conditions,Clouds,dailyrainin,SoftwareType,DateUTC
2013-04-20 00:01:00,27.0,18.9,29.69,West,273,0.0,0.0,71,0.00,,---,0.00,VWS V14.01,2013-04-20 04:01:00,
2013-04-20 00:06:00,27.0,18.5,29.70,WNW,291,0.0,0.0,70,0.00,,---,0.00,VWS V14.01,2013-04-20 04:06:00,
2013-04-20 00:11:00,27.0,18.5,29.70,NW,319,0.0,0.0,70,0.00,,---,0.00,VWS V14.01,2013-04-20 04:11:00,
2013-04-20 00:17:00,26.9,19.7,29.70,NNW,336,0.0,0.0,74,0.00,,---,0.00,VWS V14.01,2013-04-20 04:17:00,
2013-04-20 00:22:00,26.7,19.2,29.70,WNW,295,0.0,0.0,73,0.00,,---,0.00,VWS V14.01,2013-04-20 04:22:00,
2013-04-20 00:27:00,26.7,19.2,29.70,WSW,256,0.0,0.0,73,0.00,,---,0.00,VWS V14.01,2013-04-20 04:27:00,
2013-04-20 00:32:00,26.6,19.1,29.70,NE,37,0.0,0.0,73,0.00,,---,0.00,VWS V14.01,2013-04-20 04:32:00,
2013-04-20 00:37:00,26.6,19.4,29.71,NNW,345,0.0,0.0,74,0.00,,---,0.00,VWS V14.01,2013-04-20 04:37:00,
2013-04-20 00:42:00,26.4,19.6,29.71,West,272,0.0,0.0,75,0.00,,---,0.00,VWS V14.01,2013-04-20 04:42:00,
2013-04-20 00:47:00,26.6,18.8,29.71,West,265,0.0,0.0,72,0.00,,---,0.00,VWS V14.01,2013-04-20 04:47:00,
2013-04-20 00:52:00,26.7,17.9,29.71,North,360,0.0,0.0,69,0.00,,---,0.00,VWS V14.01,2013-04-20 04:52:00,
2013-04-20 00:57:00,26.7,17.9,29.72,WNW,290,0.0,0.0,69,0.00,,---,0.00,VWS V14.01,2013-04-20 04:57:00,
2013-04-20 01:02:00,26.7,18.9,29.72,NNW,343,0.0,0.0,72,0.00,,---,0.00,VWS V14.01,2013-04-20 05:02:00,
2013-04-20 01:07:00,26.4,19.2,29.72,WNW,282,0.0,0.0,74,0.00,,---,0.00,VWS V14.01,2013-04-20 05:07:00,
2013-04-20 01:12:00,26.4,19.6,29.73,NNE,33,0.0,0.0,75,0.00,,---,0.00,VWS V14.01,2013-04-20 05:12:00,
2013-04-20 01:17:00,26.3,19.8,29.73,NW,321,0.0,0.0,76,0.00,,---,0.00,VWS V14.01,2013-04-20 05:17:00,
2013-04-20 01:22:00,26.1,19.0,29.73,NNE,26,0.0,0.0,74,0.00,,---,0.00,VWS V14.01,2013-04-20 05:22:00,
2013-04-20 01:27:00,26.0,19.2,29.74,North,360,0.0,0.0,75,0.00,,---,0.00,VWS V14.01,2013-04-20 05:27:00,
2013-04-20 01:32:00,25.0,20.3,29.74,North,5,0.0,0.0,82,0.00,,---,0.00,VWS V14.01,2013-04-20 05:32:00,
2013-04-20 01:37:00,24.2,20.4,29.75,NW,312,0.0,0.0,85,0.00,,---,0.00,VWS V14.01,2013-04-20 05:37:00,
2013-04-20 01:42:00,24.1,20.5,29.75,NNE,16,0.0,0.0,86,0.00,,---,0.00,VWS V14.01,2013-04-20 05:42:00,
2013-04-20 01:47:00,23.9,20.6,29.75,West,265,0.0,0.0,87,0.00,,---,0.00,VWS V14.01,2013-04-20 05:47:00,
2013-04-20 01:52:00,23.8,20.5,29.75,North,11,0.0,0.0,87,0.00,,---,0.00,VWS V14.01,2013-04-20 05:52:00,
2013-04-20 01:57:00,23.8,20.5,29.75,WNW,302,0.0,0.0,87,0.00,,---,0.00,VWS V14.01,2013-04-20 05:57:00,
2013-04-20 02:02:00,23.9,20.6,29.75,WNW,303,0.0,0.0,87,0.00,,---,0.00,VWS V14.01,2013-04-20 06:02:00,
2013-04-20 02:07:00,24.1,20.8,29.75,NW,315,0.0,0.0,87,0.00,,---,0.00,VWS V14.01,2013-04-20 06:07:00,
2013-04-20 02:12:00,24.1,20.5,29.75,North,10,0.0,0.0,86,0.00,,---,0.00,VWS V14.01,2013-04-20 06:12:00,
2013-04-20 02:17:00,24.2,20.6,29.76,NNW,333,0.0,0.0,86,0.00,,---,0.00,VWS V14.01,2013-04-20 06:17:00,
2013-04-20 02:22:00,24.2,20.6,29.77,NW,314,0.0,0.0,86,0.00,,---,0.00,VWS V14.01,2013-04-20 06:22:00,
2013-04-20 02:27:00,24.2,20.4,29.77,North,5,0.0,0.0,85,0.00,,---,0.00,VWS V14.01,2013-04-20 06:27:00,
2013-04-20 02:32:00,24.2,19.8,29.77,NNE,16,0.0,0.0,83,0.00,,---,0.00,VWS V14.01,2013-04-20 06:32:00,
2013-04-20 02:37:00,24.1,19.4,29.77,NNE,18,0.0,0.0,82,0.00,,---,0.00,VWS V14.01,2013-04-20 06:37:00,
2013-04-20 02:43:00,24.1,19.7,29.77,NNE,25,0.0,0.0,83,0.00,,---,0.00,VWS V14.01,2013-04-20 06:43:00,
2013-04-20 02:48:00,24.2,19.5,29.77,NNE,17,0.0,0.0,82,0.00,,---,0.00,VWS V14.01,2013-04-20 06:48:00,
2013-04-20 02:53:00,24.2,19.8,29.77,NNW,329,0.0,0.0,83,0.00,,---,0.00,VWS V14.01,2013-04-20 06:53:00,
2013-04-20 02:58:00,24.4,20.0,29.78,NW,307,0.0,0.0,83,0.00,,---,0.00,VWS V14.01,2013-04-20 06:58:00,
2013-04-20 03:03:00,24.4,20.3,29.78,North,9,0.0,0.0,84,0.00,,---,0.00,VWS V14.01,2013-04-20 07:03:00,
2013-04-20 03:08:00,24.4,20.0,29.78,NW,323,0.0,0.0,83,0.00,,---,0.00,VWS V14.01,2013-04-20 07:08:00,
2013-04-20 03:13:00,24.5,20.1,29.79,North,351,0.0,0.0,83,0.00,,---,0.00,VWS V14.01,2013-04-20 07:13:00,
2013-04-20 03:18:00,24.4,19.7,29.79,North,360,0.0,0.0,82,0.00,,---,0.00,VWS V14.01,2013-04-20 07:18:00,
2013-04-20 03:23:00,24.2,18.6,29.79,North,10,0.0,0.0,79,0.00,,---,0.00,VWS V14.01,2013-04-20 07:23:00,
2013-04-20 03:28:00,24.1,18.5,29.80,North,5,0.0,0.0,79,0.00,,---,0.00,VWS V14.01,2013-04-20 07:28:00,
2013-04-20 03:33:00,24.1,18.5,29.81,NE,51,0.0,0.0,79,0.00,,---,0.00,VWS V14.01,2013-04-20 07:33:00,
2013-04-20 03:38:00,24.1,18.5,29.80,ENE,59,0.0,0.0,79,0.00,,---,0.00,VWS V14.01,2013-04-20 07:38:00,
2013-04-20 03:43:00,23.9,18.4,29.81,NE,35,0.0,0.0,79,0.00,,---,0.00,VWS V14.01,2013-04-20 07:43:00,
2013-04-20 03:48:00,24.1,17.3,29.81,NNE,15,0.0,0.0,75,0.00,,---,0.00,VWS V14.01,2013-04-20 07:48:00,
2013-04-20 03:53:00,24.2,15.8,29.81,NE,34,0.0,0.0,70,0.00,,---,0.00,VWS V14.01,2013-04-20 07:53:00,
2013-04-20 03:58:00,24.4,16.0,29.82,NNW,340,0.0,0.0,70,0.00,,---,0.00,VWS V14.01,2013-04-20 07:58:00,
2013-04-20 04:03:00,24.4,16.0,29.82,NNW,348,0.0,0.0,70,0.00,,---,0.00,VWS V14.01,2013-04-20 08:03:00,
2013-04-20 04:08:00,24.5,15.8,29.83,North,360,0.0,0.0,69,0.00,,---,0.00,VWS V14.01,2013-04-20 08:08:00,
2013-04-20 04:13:00,24.5,15.1,29.83,NNW,342,0.0,0.0,67,0.00,,---,0.00,VWS V14.01,2013-04-20 08:13:00,
2013-04-20 04:18:00,24.4,14.3,29.83,North,5,0.0,0.0,65,0.00,,---,0.00,VWS V14.01,2013-04-20 08:18:00,
2013-04-20 04:23:00,24.4,14.3,29.84,NNE,15,0.0,0.0,65,0.00,,---,0.00,VWS V14.01,2013-04-20 08:23:00,
2013-04-20 04:28:00,24.4,14.3,29.84,NNE,31,0.0,0.0,65,0.00,,---,0.00,VWS V14.01,2013-04-20 08:28:00,
2013-04-20 04:33:00,24.4,14.3,29.85,North,360,0.0,0.0,65,0.00,,---,0.00,VWS V14.01,2013-04-20 08:33:00,
2013-04-20 04:38:00,24.5,15.1,29.85,NNW,340,0.0,0.0,67,0.00,,---,0.00,VWS V14.01,2013-04-20 08:38:00,
2013-04-20 04:43:00,24.5,15.5,29.85,NNE,30,0.0,0.0,68,0.00,,---,0.00,VWS V14.01,2013-04-20 08:43:00,
2013-04-20 04:48:00,24.5,15.1,29.85,North,360,0.0,0.0,67,0.00,,---,0.00,VWS V14.01,2013-04-20 08:48:00,
2013-04-20 04:53:00,24.7,15.3,29.86,North,5,0.0,0.0,67,0.00,,---,0.00,VWS V14.01,2013-04-20 08:53:00,
2013-04-20 04:58:00,24.7,15.3,29.86,NNE,18,0.0,0.0,67,0.00,,---,0.00,VWS V14.01,2013-04-20 08:58:00,
2013-04-20 05:03:00,24.7,15.3,29.87,North,355,0.0,0.0,67,0.00,,---,0.00,VWS V14.01,2013-04-20 09:03:00,
2013-04-20 05:08:00,24.7,15.3,29.87,North,5,0.0,0.0,67,0.00,,---,0.00,VWS V14.01,2013-04-20 09:08:00,
2013-04-20 05:14:00,24.7,15.3,29.88,North,360,0.0,0.0,67,0.00,,---,0.00,VWS V14.01,2013-04-20 09:14:00,
2013-04-20 05:19:00,24.7,15.7,29.88,North,5,0.0,0.0,68,0.00,,---,0.00,VWS V14.01,2013-04-20 09:19:00,
2013-04-20 05:24:00,24.7,16.3,29.88,NNE,19,0.0,0.0,70,0.00,,---,0.00,VWS V14.01,2013-04-20 09:24:00,
2013-04-20 05:29:00,24.7,15.0,29.89,North,9,0.0,0.0,66,0.00,,---,0.00,VWS V14.01,2013-04-20 09:29:00,
2013-04-20 05:34:00,24.7,15.0,29.89,North,355,0.0,0.0,66,0.00,,---,0.00,VWS V14.01,2013-04-20 09:34:00,
2013-04-20 05:39:00,24.7,15.3,29.89,North,11,0.0,0.0,67,0.00,,---,0.00,VWS V14.01,2013-04-20 09:39:00,
2013-04-20 05:44:00,24.7,15.3,29.90,NNE,14,0.0,0.0,67,0.00,,---,0.00,VWS V14.01,2013-04-20 09:44:00,
2013-04-20 05:49:00,24.7,15.3,29.90,North,11,0.0,0.0,67,0.00,,---,0.00,VWS V14.01,2013-04-20 09:49:00,
2013-04-20 05:54:00,24.7,15.3,29.90,North,5,0.0,0.0,67,0.00,,---,0.00,VWS V14.01,2013-04-20 09:54:00,
2013-04-20 05:59:00,24.8,15.1,29.91,NNE,15,0.0,0.0,66,0.00,,---,0.00,VWS V14.01,2013-04-20 09:59:00,
2013-04-20 06:04:00,24.7,15.0,29.91,NNE,31,0.0,0.0,66,0.00,,---,0.00,VWS V14.01,2013-04-20 10:04:00,
2013-04-20 06:09:00,24.7,15.0,29.91,NNE,28,0.0,0.0,66,0.00,,---,0.00,VWS V14.01,2013-04-20 10:09:00,
2013-04-20 06:14:00,24.7,15.0,29.92,NNW,345,0.0,0.0,66,0.00,,---,0.00,VWS V14.01,2013-04-20 10:14:00,
2013-04-20 06:19:00,24.7,15.3,29.92,NNE,19,0.0,0.0,67,0.00,,---,0.00,VWS V14.01,2013-04-20 10:19:00,
2013-04-20 06:24:00,24.7,15.0,29.93,North,355,0.0,0.0,66,0.00,,---,0.00,VWS V14.01,2013-04-20 10:24:00,
2013-04-20 06:29:00,24.7,15.7,29.93,NNE,28,0.0,0.0,68,0.00,,---,0.00,VWS V14.01,2013-04-20 10:29:00,
2013-04-20 06:34:00,24.5,15.8,29.93,North,5,0.0,0.0,69,0.00,,---,0.00,VWS V14.01,2013-04-20 10:34:00,
2013-04-20 06:39:00,24.5,16.5,29.94,NNE,15,0.0,0.0,71,0.00,,---,0.00,VWS V14.01,2013-04-20 10:39:00,
2013-04-20 06:44:00,24.4,16.7,29.94,North,5,0.0,0.0,72,0.00,,---,0.00,VWS V14.01,2013-04-20 10:44:00,
2013-04-20 06:49:00,24.4,16.7,29.94,North,5,0.0,0.0,72,0.00,,---,0.00,VWS V14.01,2013-04-20 10:49:00,
2013-04-20 06:54:00,24.4,17.0,29.94,North,355,0.0,0.0,73,0.00,,---,0.00,VWS V14.01,2013-04-20 10:54:00,
2013-04-20 06:59:00,24.4,17.0,29.95,NE,38,0.0,0.0,73,0.00,,---,0.00,VWS V14.01,2013-04-20 10:59:00,
2013-04-20 07:04:00,24.5,16.8,29.95,North,9,0.0,0.0,72,0.00,,---,0.00,VWS V14.01,2013-04-20 11:04:00,
2013-04-20 07:09:00,24.5,16.8,29.95,North,10,0.0,0.0,72,0.00,,---,0.00,VWS V14.01,2013-04-20 11:09:00,
2013-04-20 07:14:00,24.7,16.6,29.96,NNW,333,0.0,0.0,71,0.00,,---,0.00,VWS V14.01,2013-04-20 11:14:00,
2013-04-20 07:19:00,24.8,16.8,29.96,NNW,344,0.0,0.0,71,0.00,,---,0.00,VWS V14.01,2013-04-20 11:19:00,
2013-04-20 07:24:00,25.0,16.9,29.96,North,360,0.0,0.0,71,0.00,,---,0.00,VWS V14.01,2013-04-20 11:24:00,
2013-04-20 07:29:00,25.1,17.0,29.97,NNE,22,0.0,0.0,71,0.00,,---,0.00,VWS V14.01,2013-04-20 11:29:00,
2013-04-20 07:34:00,25.1,16.7,29.97,North,9,0.0,0.0,70,0.00,,---,0.00,VWS V14.01,2013-04-20 11:34:00,
2013-04-20 07:39:00,25.1,16.7,29.97,North,360,0.0,0.0,70,0.00,,---,0.00,VWS V14.01,2013-04-20 11:39:00,
2013-04-20 07:44:00,25.1,16.7,29.97,North,360,0.0,0.0,70,0.00,,---,0.00,VWS V14.01,2013-04-20 11:44:00,
2013-04-20 07:49:00,25.3,16.6,29.98,North,355,0.0,0.0,69,0.00,,---,0.00,VWS V14.01,2013-04-20 11:49:00,
2013-04-20 07:54:00,25.4,16.7,29.98,NW,310,0.0,0.0,69,0.00,,---,0.00,VWS V14.01,2013-04-20 11:54:00,
2013-04-20 08:00:00,25.6,16.2,29.98,North,355,0.0,0.0,67,0.00,,---,0.00,VWS V14.01,2013-04-20 12:00:00,
2013-04-20 08:05:00,25.8,16.0,29.99,North,360,0.0,0.0,66,0.00,,---,0.00,VWS V14.01,2013-04-20 12:05:00,
2013-04-20 08:10:00,26.0,16.2,29.99,NNE,31,0.0,0.0,66,0.00,,---,0.00,VWS V14.01,2013-04-20 12:10:00,
2013-04-20 08:15:00,26.4,16.9,30.00,NNE,22,0.0,0.0,67,0.00,,---,0.00,VWS V14.01,2013-04-20 12:15:00,
2013-04-20 08:20:00,26.6,16.4,30.00,NNE,18,0.0,0.0,65,0.00,,---,0.00,VWS V14.01,2013-04-20 12:20:00,
2013-04-20 08:25:00,26.7,16.5,30.00,NNE,24,0.0,0.0,65,0.00,,---,0.00,VWS V14.01,2013-04-20 12:25:00,
2013-04-20 08:30:00,26.6,16.8,30.00,North,355,0.0,0.0,66,0.00,,---,0.00,VWS V14.01,2013-04-20 12:30:00,
2013-04-20 08:35:00,26.6,16.8,30.01,NNE,24,0.0,0.0,66,0.00,,---,0.00,VWS V14.01,2013-04-20 12:35:00,
2013-04-20 08:40:00,26.6,16.4,30.01,NNE,15,0.0,0.0,65,0.00,,---,0.00,VWS V14.01,2013-04-20 12:40:00,
2013-04-20 08:45:00,26.9,16.7,30.02,NNW,335,0.0,0.0,65,0.00,,---,0.00,VWS V14.01,2013-04-20 12:45:00,
2013-04-20 08:50:00,26.9,16.0,30.01,NNE,16,0.0,0.0,63,0.00,,---,0.00,VWS V14.01,2013-04-20 12:50:00,
2013-04-20 08:55:00,26.6,16.4,30.02,North,350,0.0,0.0,65,0.00,,---,0.00,VWS V14.01,2013-04-20 12:55:00,
2013-04-20 09:00:00,26.4,17.6,30.02,NNE,22,0.0,0.0,69,0.00,,---,0.00,VWS V14.01,2013-04-20 13:00:00,
2013-04-20 09:05:00,26.1,19.0,30.03,NNE,14,0.0,0.0,74,0.00,,---,0.00,VWS V14.01,2013-04-20 13:05:00,
2013-04-20 09:10:00,25.8,19.9,30.03,NNE,18,0.0,0.0,78,0.00,,---,0.00,VWS V14.01,2013-04-20 13:10:00,
2013-04-20 09:15:00,25.6,20.9,30.04,NNW,337,0.0,0.0,82,0.00,,---,0.00,VWS V14.01,2013-04-20 13:15:00,
2013-04-20 09:20:00,25.6,21.5,30.04,NW,312,0.0,0.0,84,0.00,,---,0.00,VWS V14.01,2013-04-20 13:20:00,
2013-04-20 09:25:00,25.4,21.5,30.05,NNE,15,0.0,0.0,85,0.00,,---,0.00,VWS V14.01,2013-04-20 13:25:00,
2013-04-20 09:30:00,25.6,22.0,30.05,NNW,329,0.0,0.0,86,0.00,,---,0.00,VWS V14.01,2013-04-20 13:30:00,
2013-04-20 09:35:00,25.6,21.5,30.05,NNE,29,0.0,0.0,84,0.00,,---,0.00,VWS V14.01,2013-04-20 13:35:00,
2013-04-20 09:40:00,25.4,21.8,30.06,North,5,0.0,0.0,86,0.00,,---,0.00,VWS V14.01,2013-04-20 13:40:00,
2013-04-20 09:45:00,25.1,21.8,30.06,NNE,16,0.0,0.0,87,0.00,,---,0.00,VWS V14.01,2013-04-20 13:45:00,
2013-04-20 09:50:00,24.8,22.0,30.06,NE,36,0.0,0.0,89,0.00,,---,0.00,VWS V14.01,2013-04-20 13:50:00,
2013-04-20 09:55:00,24.8,22.0,30.07,North,10,0.0,0.0,89,0.00,,---,0.00,VWS V14.01,2013-04-20 13:55:00,
2013-04-20 10:00:00,25.3,22.8,30.07,North,355,0.0,0.0,90,0.00,,---,0.00,VWS V14.01,2013-04-20 14:00:00,
2013-04-20 10:05:00,25.6,23.1,30.08,North,10,0.0,0.0,90,0.00,,---,0.00,VWS V14.01,2013-04-20 14:05:00,
2013-04-20 10:10:00,25.4,22.6,30.08,NNW,327,0.0,0.0,89,0.00,,---,0.00,VWS V14.01,2013-04-20 14:10:00,
2013-04-20 10:15:00,25.3,22.5,30.08,NW,315,0.0,0.0,89,0.00,,---,0.00,VWS V14.01,2013-04-20 14:15:00,
2013-04-20 10:20:00,25.4,22.6,30.08,NW,315,0.0,0.0,89,0.00,,---,0.00,VWS V14.01,2013-04-20 14:20:00,
2013-04-20 10:25:00,25.8,22.7,30.09,WNW,302,0.0,0.0,88,0.00,,---,0.00,VWS V14.01,2013-04-20 14:25:00,
2013-04-20 10:30:00,26.6,23.3,30.09,North,350,0.0,0.0,87,0.00,,---,0.00,VWS V14.01,2013-04-20 14:30:00,
2013-04-20 10:35:00,26.3,22.7,30.10,North,9,0.0,0.0,86,0.00,,---,0.00,VWS V14.01,2013-04-20 14:35:00,
2013-04-20 10:40:00,26.3,23.0,30.10,North,5,0.0,0.0,87,0.00,,---,0.00,VWS V14.01,2013-04-20 14:40:00,
2013-04-20 10:45:00,26.1,23.0,30.10,NNE,26,0.0,0.0,88,0.00,,---,0.00,VWS V14.01,2013-04-20 14:45:00,
2013-04-20 10:50:00,26.4,23.3,30.11,NNE,30,0.0,0.0,88,0.00,,---,0.00,VWS V14.01,2013-04-20 14:50:00,
2013-04-20 10:55:00,26.4,22.8,30.11,NNW,329,0.0,0.0,86,0.00,,---,0.00,VWS V14.01,2013-04-20 14:55:00,
2013-04-20 11:00:00,26.3,23.0,30.12,NW,323,0.0,0.0,87,0.00,,---,0.00,VWS V14.01,2013-04-20 15:00:00,
2013-04-20 11:05:00,26.0,22.4,30.12,NE,42,0.0,0.0,86,0.00,,---,0.00,VWS V14.01,2013-04-20 15:05:00,
2013-04-20 11:10:00,27.0,23.4,30.12,NNW,332,0.0,0.0,86,0.00,,---,0.00,VWS V14.01,2013-04-20 15:10:00,
2013-04-20 11:15:00,27.0,23.1,30.13,NNE,31,0.0,0.0,85,0.00,,---,0.00,VWS V14.01,2013-04-20 15:15:00,
2013-04-20 11:20:00,27.6,23.7,30.14,NNW,342,0.0,0.0,85,0.00,,---,0.00,VWS V14.01,2013-04-20 15:20:00,
2013-04-20 11:25:00,27.6,22.8,30.14,North,351,0.0,0.0,82,0.00,,---,0.00,VWS V14.01,2013-04-20 15:25:00,
2013-04-20 11:30:00,27.6,22.5,30.14,NW,313,0.0,0.0,81,0.00,,---,0.00,VWS V14.01,2013-04-20 15:30:00,
2013-04-20 11:36:00,28.1,22.1,30.15,WNW,288,0.0,0.0,78,0.00,,---,0.00,VWS V14.01,2013-04-20 15:36:00,
2013-04-20 11:41:00,27.9,22.2,30.15,North,360,0.0,0.0,79,0.00,,---,0.00,VWS V14.01,2013-04-20 15:41:00,
2013-04-20 11:46:00,27.6,21.6,30.15,NW,320,0.0,0.0,78,0.00,,---,0.00,VWS V14.01,2013-04-20 15:46:00,
2013-04-20 11:51:00,27.6,21.4,30.16,NNE,28,0.0,0.0,77,0.00,,---,0.00,VWS V14.01,2013-04-20 15:51:00,
2013-04-20 11:56:00,28.1,22.1,30.16,NE,40,0.0,0.0,78,0.00,,---,0.00,VWS V14.01,2013-04-20 15:56:00,
2013-04-20 12:01:00,29.4,21.8,30.16,West,263,0.0,0.0,73,0.00,,---,0.00,VWS V14.01,2013-04-20 16:01:00,
2013-04-20 12:06:00,29.4,21.2,30.17,North,5,0.0,0.0,71,0.00,,---,0.00,VWS V14.01,2013-04-20 16:06:00,
2013-04-20 12:11:00,28.4,19.9,30.17,NNW,345,0.0,0.0,70,0.00,,---,0.00,VWS V14.01,2013-04-20 16:11:00,
2013-04-20 12:16:00,28.4,20.5,30.17,NE,38,0.0,0.0,72,0.01,,---,0.01,VWS V14.01,2013-04-20 16:16:00,
2013-04-20 12:21:00,29.7,21.5,30.17,WNW,301,0.0,0.0,71,0.01,,---,0.01,VWS V14.01,2013-04-20 16:21:00,
2013-04-20 12:26:00,29.3,20.7,30.18,North,10,0.0,0.0,70,0.01,,---,0.01,VWS V14.01,2013-04-20 16:26:00,
2013-04-20 12:31:00,29.1,19.2,30.18,NNW,347,0.0,0.0,66,0.01,,---,0.01,VWS V14.01,2013-04-20 16:31:00,
2013-04-20 12:36:00,30.1,20.1,30.18,NE,44,0.0,0.0,66,0.01,,---,0.01,VWS V14.01,2013-04-20 16:36:00,
2013-04-20 12:41:00,29.3,19.4,30.19,NE,56,0.0,0.0,66,0.02,,---,0.02,VWS V14.01,2013-04-20 16:41:00,
2013-04-20 12:46:00,29.4,19.5,30.19,NNW,340,0.0,0.0,66,0.02,,---,0.02,VWS V14.01,2013-04-20 16:46:00,
2013-04-20 12:51:00,29.1,20.2,30.19,NNE,32,0.0,0.0,69,0.02,,---,0.02,VWS V14.01,2013-04-20 16:51:00,
2013-04-20 12:56:00,28.7,19.1,30.20,NNE,19,0.0,0.0,67,0.02,,---,0.02,VWS V14.01,2013-04-20 16:56:00,
2013-04-20 13:01:00,29.7,20.8,30.20,North,11,0.0,0.0,69,0.02,,---,0.02,VWS V14.01,2013-04-20 17:01:00,
2013-04-20 13:06:00,29.4,18.7,30.20,WNW,296,0.0,0.0,64,0.02,,---,0.02,VWS V14.01,2013-04-20 17:06:00,
2013-04-20 13:11:00,29.4,19.1,30.20,WNW,303,0.0,0.0,65,0.02,,---,0.02,VWS V14.01,2013-04-20 17:11:00,
2013-04-20 13:16:00,29.4,18.7,30.21,NNW,344,0.0,0.0,64,0.02,,---,0.02,VWS V14.01,2013-04-20 17:16:00,
2013-04-20 13:21:00,30.4,19.3,30.21,WNW,298,0.0,0.0,63,0.01,,---,0.02,VWS V14.01,2013-04-20 17:21:00,
2013-04-20 13:26:00,31.0,20.3,30.21,NW,311,0.0,0.0,64,0.01,,---,0.02,VWS V14.01,2013-04-20 17:26:00,
2013-04-20 13:31:00,30.7,20.0,30.21,North,355,0.0,0.0,64,0.01,,---,0.02,VWS V14.01,2013-04-20 17:31:00,
2013-04-20 13:36:00,30.7,18.5,30.21,NNW,342,0.0,0.0,60,0.01,,---,0.02,VWS V14.01,2013-04-20 17:36:00,
2013-04-20 13:41:00,30.4,18.6,30.21,WNW,298,0.0,0.0,61,0.00,,---,0.02,VWS V14.01,2013-04-20 17:41:00,
2013-04-20 13:46:00,31.0,20.3,30.22,WNW,302,0.0,0.0,64,0.00,,---,0.02,VWS V14.01,2013-04-20 17:46:00,
2013-04-20 13:51:00,31.3,19.4,30.22,WNW,286,0.0,0.0,61,0.00,,---,0.02,VWS V14.01,2013-04-20 17:51:00,
2013-04-20 13:56:00,30.6,19.9,30.22,WNW,296,0.0,0.0,64,0.00,,---,0.02,VWS V14.01,2013-04-20 17:56:00,
2013-04-20 14:01:00,29.8,19.5,30.23,North,9,0.0,0.0,65,0.00,,---,0.02,VWS V14.01,2013-04-20 18:01:00,
2013-04-20 14:06:00,29.7,20.5,30.23,NNW,327,0.0,0.0,68,0.00,,---,0.02,VWS V14.01,2013-04-20 18:06:00,
2013-04-20 14:11:00,30.0,20.4,30.23,NNE,31,0.0,0.0,67,0.00,,---,0.02,VWS V14.01,2013-04-20 18:11:00,
2013-04-20 14:16:00,30.9,21.6,30.23,NNW,342,0.0,0.0,68,0.01,,---,0.03,VWS V14.01,2013-04-20 18:16:00,
2013-04-20 14:21:00,30.4,20.4,30.24,WNW,286,0.0,0.0,66,0.01,,---,0.03,VWS V14.01,2013-04-20 18:21:00,
2013-04-20 14:27:00,29.4,21.8,30.25,NNE,14,0.0,0.0,73,0.01,,---,0.03,VWS V14.01,2013-04-20 18:27:00,
2013-04-20 14:32:00,29.3,23.0,30.25,North,355,0.0,0.0,77,0.01,,---,0.03,VWS V14.01,2013-04-20 18:32:00,
2013-04-20 14:37:00,29.1,22.8,30.25,WNW,288,0.0,0.0,77,0.01,,---,0.03,VWS V14.01,2013-04-20 18:37:00,
2013-04-20 14:42:00,29.3,23.0,30.25,WNW,293,0.0,0.0,77,0.01,,---,0.03,VWS V14.01,2013-04-20 18:42:00,
2013-04-20 14:47:00,30.4,22.5,30.26,West,261,0.0,0.0,72,0.01,,---,0.03,VWS V14.01,2013-04-20 18:47:00,
2013-04-20 14:52:00,31.0,20.6,30.25,West,268,0.0,0.0,65,0.01,,---,0.03,VWS V14.01,2013-04-20 18:52:00,
2013-04-20 14:57:00,32.2,20.7,30.26,WNW,282,0.0,0.0,62,0.01,,---,0.03,VWS V14.01,2013-04-20 18:57:00,
2013-04-20 15:02:00,32.1,20.2,30.25,North,350,0.0,0.0,61,0.01,,---,0.03,VWS V14.01,2013-04-20 19:02:00,
2013-04-20 15:07:00,31.3,19.4,30.26,NNE,29,0.0,0.0,61,0.01,,---,0.03,VWS V14.01,2013-04-20 19:07:00,
2013-04-20 15:12:00,30.7,21.4,30.26,NNE,13,0.0,0.0,68,0.01,,---,0.03,VWS V14.01,2013-04-20 19:12:00,
2013-04-20 15:17:00,31.6,21.2,30.27,WNW,286,0.0,0.0,65,0.01,,---,0.03,VWS V14.01,2013-04-20 19:17:00,
2013-04-20 15:22:00,31.6,21.2,30.27,WNW,294,0.0,0.0,65,0.00,,---,0.03,VWS V14.01,2013-04-20 19:22:00,
2013-04-20 15:27:00,31.5,22.2,30.27,North,360,0.0,0.0,68,0.00,,---,0.03,VWS V14.01,2013-04-20 19:27:00,
2013-04-20 15:32:00,31.3,19.8,30.27,SW,235,0.0,0.0,62,0.00,,---,0.03,VWS V14.01,2013-04-20 19:32:00,
2013-04-20 15:37:00,31.2,19.3,30.28,NE,36,0.0,0.0,61,0.00,,---,0.03,VWS V14.01,2013-04-20 19:37:00,
2013-04-20 15:42:00,31.8,20.3,30.28,North,5,0.0,0.0,62,0.00,,---,0.03,VWS V14.01,2013-04-20 19:42:00,
2013-04-20 15:48:00,30.9,17.1,30.28,NNW,340,0.0,0.0,56,0.00,,---,0.03,VWS V14.01,2013-04-20 19:48:00,
2013-04-20 15:53:00,30.6,16.8,30.28,NNW,338,0.0,0.0,56,0.00,,---,0.03,VWS V14.01,2013-04-20 19:53:00,
2013-04-20 15:58:00,31.0,16.7,30.29,NNW,347,0.0,0.0,55,0.00,,---,0.03,VWS V14.01,2013-04-20 19:58:00,
2013-04-20 16:03:00,31.0,16.3,30.29,North,355,0.0,0.0,54,0.00,,---,0.03,VWS V14.01,2013-04-20 20:03:00,
2013-04-20 16:08:00,31.0,15.4,30.29,North,5,0.0,0.0,52,0.00,,---,0.03,VWS V14.01,2013-04-20 20:08:00,
2013-04-20 16:13:00,30.9,16.6,30.30,NNE,12,0.0,0.0,55,0.00,,---,0.03,VWS V14.01,2013-04-20 20:13:00,
2013-04-20 16:18:00,30.7,15.6,30.30,North,5,0.0,0.0,53,0.00,,---,0.03,VWS V14.01,2013-04-20 20:18:00,
2013-04-20 16:23:00,30.9,16.2,30.30,NNW,347,0.0,0.0,54,0.00,,---,0.03,VWS V14.01,2013-04-20 20:23:00,
2013-04-20 16:28:00,31.3,16.2,30.31,WNW,298,0.0,0.0,53,0.00,,---,0.03,VWS V14.01,2013-04-20 20:28:00,
2013-04-20 16:33:00,32.2,17.9,30.31,North,355,0.0,0.0,55,0.00,,---,0.03,VWS V14.01,2013-04-20 20:33:00,
2013-04-20 16:38:00,33.2,17.5,30.31,West,271,0.0,0.0,52,0.00,,---,0.03,VWS V14.01,2013-04-20 20:38:00,
2013-04-20 16:43:00,33.8,18.0,30.31,North,355,0.0,0.0,52,0.00,,---,0.03,VWS V14.01,2013-04-20 20:43:00,
2013-04-20 16:48:00,32.7,16.6,30.32,NW,312,0.0,0.0,51,0.00,,---,0.03,VWS V14.01,2013-04-20 20:48:00,
2013-04-20 16:53:00,32.9,18.5,30.31,West,281,0.0,0.0,55,0.00,,---,0.03,VWS V14.01,2013-04-20 20:53:00,
2013-04-20 16:58:00,32.9,16.3,30.32,North,349,0.0,0.0,50,0.00,,---,0.03,VWS V14.01,2013-04-20 20:58:00,
2013-04-20 17:03:00,32.8,17.1,30.32,NNE,19,0.0,0.0,52,0.00,,---,0.03,VWS V14.01,2013-04-20 21:03:00,
2013-04-20 17:08:00,32.8,17.6,30.33,North,355,0.0,0.0,53,0.00,,---,0.03,VWS V14.01,2013-04-20 21:08:00,
2013-04-20 17:13:00,32.5,16.4,30.33,West,281,0.0,0.0,51,0.00,,---,0.03,VWS V14.01,2013-04-20 21:13:00,
2013-04-20 17:18:00,32.4,18.0,30.33,NNE,17,0.0,0.0,55,0.00,,---,0.03,VWS V14.01,2013-04-20 21:18:00,
2013-04-20 17:23:00,32.8,17.1,30.33,NW,310,0.0,0.0,52,0.00,,---,0.03,VWS V14.01,2013-04-20 21:23:00,
2013-04-20 17:28:00,32.5,15.9,30.34,NNE,13,0.0,0.0,50,0.00,,---,0.03,VWS V14.01,2013-04-20 21:28:00,
2013-04-20 17:33:00,31.9,15.4,30.34,NW,325,0.0,0.0,50,0.00,,---,0.03,VWS V14.01,2013-04-20 21:33:00,
2013-04-20 17:38:00,31.5,15.0,30.34,NNW,334,0.0,0.0,50,0.00,,---,0.03,VWS V14.01,2013-04-20 21:38:00,
2013-04-20 17:43:00,31.3,15.7,30.34,WNW,303,0.0,0.0,52,0.00,,---,0.03,VWS V14.01,2013-04-20 21:43:00,
2013-04-20 17:48:00,32.1,16.9,30.34,NNE,13,0.0,0.0,53,0.00,,---,0.03,VWS V14.01,2013-04-20 21:48:00,
2013-04-20 17:53:00,32.1,16.0,30.35,North,360,0.0,0.0,51,0.00,,---,0.03,VWS V14.01,2013-04-20 21:53:00,
2013-04-20 17:58:00,32.2,16.1,30.35,NNW,329,0.0,0.0,51,0.00,,---,0.03,VWS V14.01,2013-04-20 21:58:00,
2013-04-20 18:03:00,32.8,17.6,30.35,WNW,283,0.0,0.0,53,0.00,,---,0.03,VWS V14.01,2013-04-20 22:03:00,
2013-04-20 18:08:00,32.8,17.1,30.35,NNE,19,0.0,0.0,52,0.00,,---,0.03,VWS V14.01,2013-04-20 22:08:00,
2013-04-20 18:13:00,33.2,18.8,30.35,North,9,0.0,0.0,55,0.00,,---,0.03,VWS V14.01,2013-04-20 22:13:00,
2013-04-20 18:18:00,33.4,17.2,30.35,NNW,348,0.0,0.0,51,0.00,,---,0.03,VWS V14.01,2013-04-20 22:18:00,
2013-04-20 18:23:00,33.2,17.5,30.35,NW,323,0.0,0.0,52,0.00,,---,0.03,VWS V14.01,2013-04-20 22:23:00,
2013-04-20 18:28:00,33.1,17.0,30.36,NNW,327,0.0,0.0,51,0.00,,---,0.03,VWS V14.01,2013-04-20 22:28:00,
2013-04-20 18:33:00,33.1,16.5,30.36,NNW,334,0.0,0.0,50,0.00,,---,0.03,VWS V14.01,2013-04-20 22:33:00,
2013-04-20 18:39:00,32.9,16.3,30.36,North,349,0.0,0.0,50,0.00,,---,0.03,VWS V14.01,2013-04-20 22:39:00,
2013-04-20 18:44:00,32.9,16.8,30.36,WNW,296,0.0,0.0,51,0.00,,---,0.03,VWS V14.01,2013-04-20 22:44:00,
2013-04-20 18:49:00,32.8,16.7,30.36,North,355,0.0,0.0,51,0.00,,---,0.03,VWS V14.01,2013-04-20 22:49:00,
2013-04-20 18:54:00,32.8,16.2,30.37,NNE,30,0.0,0.0,50,0.00,,---,0.03,VWS V14.01,2013-04-20 22:54:00,
2013-04-20 18:59:00,32.7,17.0,30.37,NNW,330,0.0,0.0,52,0.00,,---,0.03,VWS V14.01,2013-04-20 22:59:00,
2013-04-20 19:04:00,32.5,15.5,30.37,WNW,303,0.0,0.0,49,0.00,,---,0.03,VWS V14.01,2013-04-20 23:04:00,
2013-04-20 19:09:00,32.4,15.4,30.37,North,5,0.0,0.0,49,0.00,,---,0.03,VWS V14.01,2013-04-20 23:09:00,
2013-04-20 19:14:00,32.1,16.0,30.37,NW,310,0.0,0.0,51,0.00,,---,0.03,VWS V14.01,2013-04-20 23:14:00,
2013-04-20 19:19:00,32.1,16.0,30.38,WNW,291,0.0,0.0,51,0.00,,---,0.03,VWS V14.01,2013-04-20 23:19:00,
2013-04-20 19:24:00,31.9,15.4,30.38,North,9,0.0,0.0,50,0.00,,---,0.03,VWS V14.01,2013-04-20 23:24:00,
2013-04-20 19:29:00,31.9,15.8,30.38,North,11,0.0,0.0,51,0.00,,---,0.03,VWS V14.01,2013-04-20 23:29:00,
2013-04-20 19:34:00,31.9,15.8,30.38,NNW,327,0.0,0.0,51,0.00,,---,0.03,VWS V14.01,2013-04-20 23:34:00,
2013-04-20 19:39:00,31.9,15.8,30.38,North,360,0.0,0.0,51,0.00,,---,0.03,VWS V14.01,2013-04-20 23:39:00,
2013-04-20 19:44:00,31.8,16.2,30.38,NNW,329,0.0,0.0,52,0.00,,---,0.03,VWS V14.01,2013-04-20 23:44:00,
2013-04-20 19:49:00,31.8,15.8,30.39,NNW,338,0.0,0.0,51,0.00,,---,0.03,VWS V14.01,2013-04-20 23:49:00,
2013-04-20 19:54:00,31.5,14.6,30.39,NW,323,0.0,0.0,49,0.00,,---,0.03,VWS V14.01,2013-04-20 23:54:00,
2013-04-20 19:59:00,31.2,16.1,30.39,NNW,327,0.0,0.0,53,0.00,,---,0.03,VWS V14.01,2013-04-20 23:59:00,
2013-04-20 20:04:00,30.9,15.4,30.39,NW,316,0.0,0.0,52,0.00,,---,0.03,VWS V14.01,2013-04-21 00:04:00,
2013-04-20 20:09:00,30.7,16.0,30.39,NW,318,0.0,0.0,54,0.00,,---,0.03,VWS V14.01,2013-04-21 00:09:00,
2013-04-20 20:14:00,30.4,15.8,30.39,NW,318,0.0,0.0,54,0.00,,---,0.03,VWS V14.01,2013-04-21 00:14:00,
2013-04-20 20:19:00,30.3,15.7,30.40,NW,318,0.0,0.0,54,0.00,,---,0.03,VWS V14.01,2013-04-21 00:19:00,
2013-04-20 20:24:00,30.0,15.4,30.40,NW,318,0.0,0.0,54,0.00,,---,0.03,VWS V14.01,2013-04-21 00:24:00,
2013-04-20 20:29:00,29.8,15.6,30.40,NW,318,0.0,0.0,55,0.00,,---,0.03,VWS V14.01,2013-04-21 00:29:00,
2013-04-20 20:34:00,29.5,15.8,30.40,NW,318,0.0,0.0,56,0.00,,---,0.03,VWS V14.01,2013-04-21 00:34:00,
2013-04-20 20:39:00,29.4,15.7,30.40,NW,318,0.0,0.0,56,0.00,,---,0.03,VWS V14.01,2013-04-21 00:39:00,
2013-04-20 20:44:00,29.3,16.4,30.41,NW,318,0.0,0.0,58,0.00,,---,0.03,VWS V14.01,2013-04-21 00:44:00,
2013-04-20 20:49:00,29.1,16.2,30.41,NW,318,0.0,0.0,58,0.00,,---,0.03,VWS V14.01,2013-04-21 00:49:00,
2013-04-20 20:54:00,29.0,15.7,30.41,NW,318,0.0,0.0,57,0.00,,---,0.03,VWS V14.01,2013-04-21 00:54:00,
2013-04-20 20:59:00,28.7,15.8,30.42,NW,318,0.0,0.0,58,0.00,,---,0.03,VWS V14.01,2013-04-21 00:59:00,
2013-04-20 21:04:00,28.7,16.6,30.42,NW,318,0.0,0.0,60,0.00,,---,0.03,VWS V14.01,2013-04-21 01:04:00,
2013-04-20 21:09:00,28.5,16.0,30.42,NW,318,0.0,0.0,59,0.00,,---,0.03,VWS V14.01,2013-04-21 01:09:00,
2013-04-20 21:14:00,28.2,16.5,30.42,NW,318,0.0,0.0,61,0.00,,---,0.03,VWS V14.01,2013-04-21 01:14:00,
2013-04-20 21:19:00,28.2,16.1,30.43,NW,318,0.0,0.0,60,0.00,,---,0.03,VWS V14.01,2013-04-21 01:19:00,
2013-04-20 21:24:00,27.9,15.8,30.43,NW,318,0.0,0.0,60,0.00,,---,0.03,VWS V14.01,2013-04-21 01:24:00,
2013-04-20 21:29:00,27.9,15.4,30.43,NW,318,0.0,0.0,59,0.00,,---,0.03,VWS V14.01,2013-04-21 01:29:00,
2013-04-20 21:34:00,27.8,16.1,30.43,NW,318,0.0,0.0,61,0.00,,---,0.03,VWS V14.01,2013-04-21 01:34:00,
2013-04-20 21:39:00,27.6,16.3,30.43,NW,318,0.0,0.0,62,0.00,,---,0.03,VWS V14.01,2013-04-21 01:39:00,
2013-04-20 21:44:00,27.3,16.4,30.44,NW,318,0.0,0.0,63,0.00,,---,0.03,VWS V14.01,2013-04-21 01:44:00,
2013-04-20 21:49:00,27.2,16.3,30.44,NW,318,0.0,0.0,63,0.00,,---,0.03,VWS V14.01,2013-04-21 01:49:00,
2013-04-20 21:54:00,27.0,16.8,30.44,NW,318,0.0,0.0,65,0.00,,---,0.03,VWS V14.01,2013-04-21 01:54:00,
2013-04-20 21:59:00,27.0,16.8,30.44,NW,318,0.0,0.0,65,0.00,,---,0.03,VWS V14.01,2013-04-21 01:59:00,
2013-04-20 22:04:00,26.9,17.1,30.44,NW,318,0.0,0.0,66,0.00,,---,0.03,VWS V14.01,2013-04-21 02:04:00,
2013-04-20 22:09:00,26.7,17.6,30.45,NW,318,0.0,0.0,68,0.00,,---,0.03,VWS V14.01,2013-04-21 02:09:00,
2013-04-20 22:14:00,26.4,17.3,30.45,NW,318,0.0,0.0,68,0.00,,---,0.03,VWS V14.01,2013-04-21 02:14:00,
2013-04-20 22:19:00,26.3,17.5,30.45,NW,318,0.0,0.0,69,0.00,,---,0.03,VWS V14.01,2013-04-21 02:19:00,
2013-04-20 22:24:00,26.1,17.3,30.45,NW,318,0.0,0.0,69,0.00,,---,0.03,VWS V14.01,2013-04-21 02:24:00,
2013-04-20 22:29:00,26.0,16.9,30.45,NW,318,0.0,0.0,68,0.00,,---,0.03,VWS V14.01,2013-04-21 02:29:00,
2013-04-20 22:34:00,25.8,17.0,30.46,NW,318,0.0,0.0,69,0.00,,---,0.03,VWS V14.01,2013-04-21 02:34:00,
2013-04-20 22:39:00,25.8,17.0,30.46,NW,318,0.0,0.0,69,0.00,,---,0.03,VWS V14.01,2013-04-21 02:39:00,
2013-04-20 22:44:00,25.7,17.0,30.46,NW,318,0.0,0.0,69,0.00,,---,0.03,VWS V14.01,2013-04-21 02:44:00,
2013-04-20 22:49:00,25.7,17.9,30.47,NW,318,0.0,0.0,72,0.00,,---,0.03,VWS V14.01,2013-04-21 02:49:00,
2013-04-20 22:54:00,25.6,17.8,30.47,NW,318,0.0,0.0,72,0.00,,---,0.03,VWS V14.01,2013-04-21 02:54:00,
2013-04-20 22:59:00,25.4,17.6,30.47,NW,319,0.0,0.0,72,0.00,,---,0.03,VWS V14.01,2013-04-21 02:59:00,
2013-04-20 23:04:00,25.4,17.6,30.47,NW,318,0.0,0.0,72,0.00,,---,0.03,VWS V14.01,2013-04-21 03:04:00,
2013-04-20 23:10:00,25.1,17.0,30.47,NW,318,0.0,0.0,71,0.00,,---,0.03,VWS V14.01,2013-04-21 03:10:00,
2013-04-20 23:15:00,25.0,17.3,30.47,NW,318,0.0,0.0,72,0.00,,---,0.03,VWS V14.01,2013-04-21 03:15:00,
2013-04-20 23:20:00,25.0,17.6,30.48,NW,318,0.0,0.0,73,0.00,,---,0.03,VWS V14.01,2013-04-21 03:20:00,
2013-04-20 23:25:00,24.8,17.1,30.48,NW,318,0.0,0.0,72,0.00,,---,0.03,VWS V14.01,2013-04-21 03:25:00,
2013-04-20 23:30:00,24.7,17.0,30.48,NW,318,0.0,0.0,72,0.00,,---,0.03,VWS V14.01,2013-04-21 03:30:00,
2013-04-20 23:35:00,24.7,17.0,30.48,NW,318,0.0,0.0,72,0.00,,---,0.03,VWS V14.01,2013-04-21 03:35:00,
2013-04-20 23:40:00,24.5,17.1,30.48,NW,318,0.0,0.0,73,0.00,,---,0.03,VWS V14.01,2013-04-21 03:40:00,
2013-04-20 23:45:00,24.5,17.7,30.48,NW,318,0.0,0.0,75,0.00,,---,0.03,VWS V14.01,2013-04-21 03:45:00,
2013-04-20 23:50:00,24.4,17.6,30.48,NW,318,0.0,0.0,75,0.00,,---,0.03,VWS V14.01,2013-04-21 03:50:00,
2013-04-20 23:55:00,24.2,17.7,30.48,NW,318,0.0,0.0,76,0.00,,---,0.03,VWS V14.01,2013-04-21 03:55:00,